Location: Unspecified
(0.0000°N, 0.0000°E)
Time: 15:59:02
(UTC+00:00)

deb Delta 126 - Pass Details

Date: 20 February 2026
Orbit: 1137 x 1258 km, 102.0° (Epoch: 9 March)

Event Time Altitude Azimuth Distance (km) Brightness Sun altitude
Rises 02:30:16 0° 148° (SSE) 4,197 ? -54.4°
Reaches altitude 10° 02:33:07 10° 140° (SE) 3,234 ? -53.7°
Enters shadow 02:34:06 14° 136° (SE) 2,922 ? -53.5°
